Zurück zum Katalog

STARLINK-36125

AktivKommunikationVLEO
NORAD 67036·PAYLOAD·🇺🇸 United States

Gestartet Dec 11, 2025 von Cape Canaveral Space Force Station

Loading…

Nächste Überflüge (nächste 24 Stunden)

TLE

AktuellSource: CelesTrak SupGP

Epoche: Sep 14, 2026, 23:01 UTC

1 67036C 25294G   26257.95951389  .00042536  00000+0  15415-2 0  2579
2 67036  43.0043  49.1334 0001665 267.5088 180.9055 15.27537798    19

Verfolge STARLINK-36125 in Echtzeit mit AllMySat

Download on the App Store